User: anonymous   Login
Location: Oshawa
(43.9000°N, 78.8670°W)
Time: 14:16:10
(UTC-05:00)
Language:

Altair - Orbit

View from above orbital plane
View from above orbital plane
View from above satellite
View from above satellite

Ground track
Ground track

The orbit data is extracted from the following two-line orbital elements,

1    50U 60009B   17016.81857663 -.00000116 +00000-0 -29259-3 0  9999
2    50 047.2330 033.4749 0114141 207.7423 151.7245 12.20099277517897
Epoch (UTC): 16 January 2017 19:38:45
Eccentricity: 0.0114141
inclination: 47.2330°
perigee height: 1501 km
apogee height: 1683 km
right ascension of ascending node: 33.4749°
argument of perigee: 207.7423°
revolutions per day: 12.20099277
mean anomaly at epoch: 151.7245°
orbit number at epoch: 51789

The dashed part of the orbit path shows where the satellite is in the earth's shadow,  

DLR